Darstellungsparameter: Aktuell verwendete Einstellungen:
Skalierung der Graphiken ... ?
xyx+y,   Skalierungsfaktor:      Skalierung: Modus: x, Faktor: 1
Darstellungszeitraum ... ?
Vom - - bis: - -   Zeitraum: 03.12.2020 - 04.12.2020
Min/Max/Avg-Anzeige ... ?
Zeige MMA aktuell
Zeige MMA Monat
Zeige MMA alles
Zeige --A aktuell
Zeige --A Monat
Zeige --A alles
Keine MMA-Anzeige
MMA:
Minimum Maximum Average (ber die Originaldaten)
MMA-Basis: 14.04.2020 - 16.05.2020
Quicknavigation für Darstellung... ?
Tage:      1T, 2T, 3T, 5T -1T -2T -3T -5T +1T +2T +3T +5T
Wochen: 1W, 2W, 3W -1W -2W -3W +1W +2W +3W
Monate: 1M, 3M, 6M -1M -3M -6M +1M +3M +6M
Jahre:    1J, 3J, 5J, 10J -1J -3J -5J -10J +1J +3J +5J +10J
Nutze für die Darstellung ... ?
Originaldaten oder Mittelwerte auf ...
Stundenbasis Tagesbasis Wochenbasis
Monatsbasis Jahresbasis      Datenbasis: Original-Daten
Darstellen als:
Statistik (Auto) Statistik J:M      Darstellung:
Zur Graphik,    zurück zur Übersicht aller Sensoren.
 
Tabellarische Datenbersicht: ?
 
Sensor: Nr:Datum:Temp:Abs-Feuchte:Windchill:Wind:
Aussen-T/F 1 03-12-2020 00:00:00 2.3 C 5.39 g/m*3 2.3 C 0 km/h
2 03-12-2020 00:05:00 2.3 C 5.39 g/m*3 2.3 C 0 km/h
3 03-12-2020 00:10:00 2.3 C 5.39 g/m*3 2.3 C 0 km/h
4 03-12-2020 00:15:00 2.3 C 5.39 g/m*3 2.3 C 0 km/h
5 03-12-2020 00:20:00 2.2 C 5.35 g/m*3 2.2 C 3.2 km/h
6 03-12-2020 00:25:00 2.2 C 5.35 g/m*3 2.2 C 3.2 km/h
7 03-12-2020 00:30:00 2.3 C 5.39 g/m*3 2.3 C 3.2 km/h
8 03-12-2020 00:35:00 2.3 C 5.39 g/m*3 2.3 C 0 km/h
9 03-12-2020 00:40:00 2.3 C 5.39 g/m*3 2.3 C 3.2 km/h
10 03-12-2020 00:45:00 2.3 C 5.39 g/m*3 2.3 C 0 km/h
11 03-12-2020 00:50:00 2.3 C 5.39 g/m*3 2.3 C 3.2 km/h
12 03-12-2020 00:55:00 2.3 C 5.39 g/m*3 2.3 C 0 km/h
13 03-12-2020 01:00:00 2.3 C 5.39 g/m*3 2.3 C 0 km/h
14 03-12-2020 01:05:00 2.3 C 5.39 g/m*3 2.3 C 0 km/h
15 03-12-2020 01:10:00 2.3 C 5.39 g/m*3 2.3 C 1.6 km/h
16 03-12-2020 01:15:00 2.3 C 5.39 g/m*3 2.3 C 0 km/h
17 03-12-2020 01:20:00 2.3 C 5.39 g/m*3 2.3 C 0 km/h
18 03-12-2020 01:25:00 2.3 C 5.39 g/m*3 2.3 C 0 km/h
19 03-12-2020 01:30:00 2.3 C 5.39 g/m*3 2.3 C 4.8 km/h
20 03-12-2020 01:35:00 2.3 C 5.39 g/m*3 2.3 C 4.8 km/h
21 03-12-2020 01:40:00 2.4 C 5.42 g/m*3 2.4 C 4.8 km/h
22 03-12-2020 01:45:00 2.4 C 5.42 g/m*3 2.4 C 4.8 km/h
23 03-12-2020 01:50:00 2.4 C 5.42 g/m*3 2.4 C 0 km/h
24 03-12-2020 01:55:00 2.4 C 5.42 g/m*3 2.4 C 4.8 km/h
25 03-12-2020 02:00:00 2.5 C 5.46 g/m*3 2.5 C 3.2 km/h
Sensor: Nr:Datum:Temp:Abs-Feuchte:Windchill:Wind:
Aussen-T/F 26 03-12-2020 02:05:00 2.5 C 5.46 g/m*3 2.5 C 0 km/h
27 03-12-2020 02:10:00 2.5 C 5.46 g/m*3 2.5 C 4.8 km/h
28 03-12-2020 02:15:00 2.6 C 5.5 g/m*3 2.6 C 3.2 km/h
29 03-12-2020 02:20:00 2.6 C 5.5 g/m*3 2.6 C 4.8 km/h
30 03-12-2020 02:25:00 2.6 C 5.5 g/m*3 0.82 C 6.4 km/h
31 03-12-2020 02:30:00 2.6 C 5.5 g/m*3 0.82 C 6.4 km/h
32 03-12-2020 02:35:00 2.6 C 5.5 g/m*3 2.6 C 4.8 km/h
33 03-12-2020 02:40:00 2.6 C 5.5 g/m*3 2.6 C 3.2 km/h
34 03-12-2020 02:45:00 2.6 C 5.5 g/m*3 2.6 C 3.2 km/h
35 03-12-2020 02:50:00 2.6 C 5.5 g/m*3 2.6 C 0 km/h
36 03-12-2020 02:55:00 2.6 C 5.5 g/m*3 2.6 C 0 km/h
37 03-12-2020 03:00:00 2.6 C 5.5 g/m*3 2.6 C 0 km/h
38 03-12-2020 03:05:00 2.6 C 5.5 g/m*3 2.6 C 3.2 km/h
39 03-12-2020 03:10:00 2.6 C 5.5 g/m*3 2.6 C 0 km/h
40 03-12-2020 03:15:00 2.6 C 5.5 g/m*3 2.6 C 0 km/h
41 03-12-2020 03:20:00 2.6 C 5.5 g/m*3 2.6 C 0 km/h
42 03-12-2020 03:25:00 2.6 C 5.5 g/m*3 2.6 C 0 km/h
43 03-12-2020 03:30:00 2.6 C 5.5 g/m*3 2.6 C 0 km/h
44 03-12-2020 03:35:00 2.6 C 5.5 g/m*3 2.6 C 1.6 km/h
45 03-12-2020 03:40:00 2.6 C 5.5 g/m*3 2.6 C 1.6 km/h
46 03-12-2020 03:45:00 2.6 C 5.5 g/m*3 2.6 C 4.8 km/h
47 03-12-2020 03:50:00 2.6 C 5.5 g/m*3 2.6 C 1.6 km/h
48 03-12-2020 03:55:00 2.6 C 5.5 g/m*3 2.6 C 3.2 km/h
49 03-12-2020 04:00:00 2.6 C 5.5 g/m*3 2.6 C 1.6 km/h
50 03-12-2020 04:05:00 2.6 C 5.5 g/m*3 0.82 C 6.4 km/h
Sensor: Nr:Datum:Temp:Abs-Feuchte:Windchill:Wind:
Aussen-T/F 51 03-12-2020 04:10:00 2.6 C 5.5 g/m*3 0.82 C 6.4 km/h
52 03-12-2020 04:15:00 2.6 C 5.5 g/m*3 2.6 C 4.8 km/h
53 03-12-2020 04:20:00 2.6 C 5.5 g/m*3 2.6 C 1.6 km/h
54 03-12-2020 04:25:00 2.5 C 5.46 g/m*3 0.71 C 6.4 km/h
55 03-12-2020 04:30:00 2.5 C 5.46 g/m*3 2.5 C 4.8 km/h
56 03-12-2020 04:35:00 2.5 C 5.46 g/m*3 2.5 C 3.2 km/h
57 03-12-2020 04:40:00 2.5 C 5.46 g/m*3 0.71 C 6.4 km/h
58 03-12-2020 04:45:00 2.4 C 5.42 g/m*3 2.4 C 3.2 km/h
59 03-12-2020 04:50:00 2.4 C 5.42 g/m*3 2.4 C 0 km/h
60 03-12-2020 04:55:00 2.4 C 5.42 g/m*3 2.4 C 0 km/h
61 03-12-2020 05:00:00 2.4 C 5.42 g/m*3 2.4 C 0 km/h
62 03-12-2020 05:05:00 2.4 C 5.48 g/m*3 2.4 C 1.6 km/h
63 03-12-2020 05:10:00 2.4 C 5.48 g/m*3 2.4 C 0 km/h
64 03-12-2020 05:15:00 2.4 C 5.48 g/m*3 2.4 C 0 km/h
65 03-12-2020 05:20:00 2.4 C 5.48 g/m*3 2.4 C 0 km/h
66 03-12-2020 05:25:00 2.4 C 5.48 g/m*3 2.4 C 0 km/h
67 03-12-2020 05:30:00 2.4 C 5.48 g/m*3 2.4 C 0 km/h
68 03-12-2020 05:35:00 2.5 C 5.52 g/m*3 2.5 C 0 km/h
69 03-12-2020 05:40:00 2.5 C 5.52 g/m*3 2.5 C 0 km/h
70 03-12-2020 05:45:00 2.5 C 5.52 g/m*3 2.5 C 1.6 km/h
71 03-12-2020 05:50:00 2.5 C 5.52 g/m*3 2.5 C 0 km/h
72 03-12-2020 05:55:00 2.5 C 5.52 g/m*3 2.5 C 0 km/h
73 03-12-2020 06:00:00 2.5 C 5.52 g/m*3 2.5 C 0 km/h
74 03-12-2020 06:05:00 2.5 C 5.52 g/m*3 2.5 C 0 km/h
75 03-12-2020 06:10:00 2.5 C 5.52 g/m*3 2.5 C 0 km/h
Sensor: Nr:Datum:Temp:Abs-Feuchte:Windchill:Wind:
Aussen-T/F 76 03-12-2020 06:15:00 2.6 C 5.56 g/m*3 2.6 C 0 km/h
77 03-12-2020 06:20:00 2.6 C 5.56 g/m*3 2.6 C 0 km/h
78 03-12-2020 06:25:00 2.6 C 5.56 g/m*3 2.6 C 0 km/h
79 03-12-2020 06:30:00 2.6 C 5.56 g/m*3 2.6 C 0 km/h
80 03-12-2020 06:35:00 2.6 C 5.56 g/m*3 2.6 C 0 km/h
81 03-12-2020 06:40:00 2.6 C 5.56 g/m*3 2.6 C 0 km/h
82 03-12-2020 06:45:00 2.6 C 5.56 g/m*3 2.6 C 0 km/h
83 03-12-2020 06:50:00 2.6 C 5.56 g/m*3 2.6 C 0 km/h
84 03-12-2020 06:55:00 2.6 C 5.56 g/m*3 2.6 C 0 km/h
85 03-12-2020 07:00:00 2.7 C 5.59 g/m*3 2.7 C 1.6 km/h
86 03-12-2020 07:05:00 2.7 C 5.59 g/m*3 2.7 C 0 km/h
87 03-12-2020 07:10:00 2.7 C 5.59 g/m*3 2.7 C 0 km/h
88 03-12-2020 07:15:00 2.7 C 5.59 g/m*3 2.7 C 0 km/h
89 03-12-2020 07:20:00 2.7 C 5.59 g/m*3 2.7 C 0 km/h
90 03-12-2020 07:25:00 2.7 C 5.59 g/m*3 2.7 C 1.6 km/h
91 03-12-2020 07:30:00 2.7 C 5.59 g/m*3 2.7 C 0 km/h
92 03-12-2020 07:35:00 2.7 C 5.59 g/m*3 2.7 C 0 km/h
93 03-12-2020 07:40:00 2.7 C 5.59 g/m*3 2.7 C 0 km/h
94 03-12-2020 07:45:00 2.7 C 5.59 g/m*3 2.7 C 0 km/h
95 03-12-2020 07:50:00 2.7 C 5.59 g/m*3 2.7 C 0 km/h
96 03-12-2020 07:55:00 2.7 C 5.59 g/m*3 2.7 C 0 km/h
97 03-12-2020 08:00:00 2.7 C 5.59 g/m*3 2.7 C 0 km/h
98 03-12-2020 08:05:00 2.7 C 5.59 g/m*3 2.7 C 0 km/h
99 03-12-2020 08:10:00 2.7 C 5.59 g/m*3 2.7 C 0 km/h
100 03-12-2020 08:15:00 2.8 C 5.63 g/m*3 2.8 C 3.2 km/h
Sensor: Nr:Datum:Temp:Abs-Feuchte:Windchill:Wind:
Aussen-T/F 101 03-12-2020 08:20:00 2.8 C 5.63 g/m*3 2.8 C 0 km/h
102 03-12-2020 08:25:00 2.8 C 5.63 g/m*3 2.8 C 0 km/h
103 03-12-2020 08:30:00 2.7 C 5.59 g/m*3 2.7 C 0 km/h
104 03-12-2020 08:35:00 2.7 C 5.59 g/m*3 2.7 C 0 km/h
105 03-12-2020 08:40:00 2.7 C 5.59 g/m*3 2.7 C 0 km/h
106 03-12-2020 08:45:00 2.7 C 5.59 g/m*3 2.7 C 4.8 km/h
107 03-12-2020 08:50:00 2.8 C 5.63 g/m*3 2.8 C 0 km/h
108 03-12-2020 08:55:00 2.8 C 5.63 g/m*3 2.8 C 0 km/h
109 03-12-2020 09:00:00 2.9 C 5.67 g/m*3 2.9 C 0 km/h
110 03-12-2020 09:05:00 2.9 C 5.67 g/m*3 2.9 C 4.8 km/h
111 03-12-2020 09:10:00 3 C 5.71 g/m*3 3 C 4.8 km/h
112 03-12-2020 09:15:00 3 C 5.71 g/m*3 3 C 1.6 km/h
113 03-12-2020 09:20:00 3.1 C 5.75 g/m*3 3.1 C 0 km/h
114 03-12-2020 09:25:00 3.1 C 5.75 g/m*3 3.1 C 3.2 km/h
115 03-12-2020 09:30:00 3.2 C 5.79 g/m*3 3.2 C 1.6 km/h
116 03-12-2020 09:35:00 3.2 C 5.79 g/m*3 3.2 C 0 km/h
117 03-12-2020 09:40:00 3.3 C 5.82 g/m*3 3.3 C 3.2 km/h
118 03-12-2020 09:45:00 3.4 C 5.86 g/m*3 3.4 C 1.6 km/h
119 03-12-2020 09:50:00 3.5 C 5.9 g/m*3 3.5 C 0 km/h
120 03-12-2020 09:55:00 3.6 C 5.88 g/m*3 3.6 C 3.2 km/h
121 03-12-2020 10:00:00 3.7 C 5.92 g/m*3 3.7 C 3.2 km/h
122 03-12-2020 10:05:00 3.7 C 5.92 g/m*3 3.7 C 4.8 km/h
123 03-12-2020 10:10:00 3.8 C 5.96 g/m*3 3.8 C 4.8 km/h
124 03-12-2020 10:15:00 4 C 5.98 g/m*3 4 C 4.8 km/h
125 03-12-2020 10:20:00 4.1 C 6.02 g/m*3 2.05 C 8.1 km/h
Sensor: Nr:Datum:Temp:Abs-Feuchte:Windchill:Wind:
Aussen-T/F 126 03-12-2020 10:25:00 4.1 C 6.02 g/m*3 4.1 C 1.6 km/h
127 03-12-2020 10:30:00 4.2 C 5.99 g/m*3 4.2 C 3.2 km/h
128 03-12-2020 10:35:00 4.2 C 5.99 g/m*3 4.2 C 1.6 km/h
129 03-12-2020 10:40:00 4.2 C 5.93 g/m*3 4.2 C 0 km/h
130 03-12-2020 10:45:00 4.2 C 5.99 g/m*3 4.2 C 3.2 km/h
131 03-12-2020 10:50:00 4.2 C 5.99 g/m*3 4.2 C 3.2 km/h
132 03-12-2020 10:55:00 4.2 C 5.93 g/m*3 4.2 C 3.2 km/h
133 03-12-2020 11:00:00 4.2 C 5.93 g/m*3 4.2 C 1.6 km/h
134 03-12-2020 11:05:00 4.2 C 5.93 g/m*3 4.2 C 4.8 km/h
135 03-12-2020 11:10:00 4.2 C 5.93 g/m*3 4.2 C 1.6 km/h
136 03-12-2020 11:15:00 4.3 C 6.03 g/m*3 4.3 C 3.2 km/h
137 03-12-2020 11:20:00 4.3 C 5.97 g/m*3 2.78 C 6.4 km/h
138 03-12-2020 11:25:00 4.4 C 6.01 g/m*3 4.4 C 3.2 km/h
139 03-12-2020 11:30:00 4.4 C 6.01 g/m*3 4.4 C 4.8 km/h
140 03-12-2020 11:35:00 4.6 C 6.09 g/m*3 4.6 C 4.8 km/h
141 03-12-2020 11:40:00 4.6 C 6.02 g/m*3 2.25 C 9.7 km/h
142 03-12-2020 11:45:00 4.7 C 6.06 g/m*3 3.25 C 6.4 km/h
143 03-12-2020 11:50:00 4.7 C 6.06 g/m*3 2.76 C 8.1 km/h
144 03-12-2020 11:55:00 4.6 C 6.02 g/m*3 3.13 C 6.4 km/h
145 03-12-2020 12:00:00 4.7 C 6.06 g/m*3 2.76 C 8.1 km/h
146 03-12-2020 12:05:00 4.7 C 6.06 g/m*3 4.7 C 4.8 km/h
147 03-12-2020 12:10:00 4.7 C 6 g/m*3 2.76 C 8.1 km/h
148 03-12-2020 12:15:00 4.7 C 6 g/m*3 4.7 C 4.8 km/h
149 03-12-2020 12:20:00 4.8 C 6.04 g/m*3 4.8 C 1.6 km/h
150 03-12-2020 12:25:00 4.8 C 6.04 g/m*3 4.8 C 4.8 km/h
Sensor: Nr:Datum:Temp:Abs-Feuchte:Windchill:Wind:
Aussen-T/F 151 03-12-2020 12:30:00 4.8 C 6.04 g/m*3 4.8 C 3.2 km/h
152 03-12-2020 12:35:00 4.8 C 6.04 g/m*3 3.36 C 6.4 km/h
153 03-12-2020 12:40:00 4.8 C 6.04 g/m*3 4.8 C 4.8 km/h
154 03-12-2020 12:45:00 4.9 C 6.08 g/m*3 4.9 C 4.8 km/h
155 03-12-2020 12:50:00 4.9 C 6.08 g/m*3 4.9 C 4.8 km/h
156 03-12-2020 12:55:00 4.9 C 6.08 g/m*3 2.61 C 9.7 km/h
157 03-12-2020 13:00:00 4.9 C 6.01 g/m*3 2.27 C 11.3 km/h
158 03-12-2020 13:05:00 4.9 C 6.01 g/m*3 4.9 C 4.8 km/h
159 03-12-2020 13:10:00 5 C 6.05 g/m*3 5 C 4.8 km/h
160 03-12-2020 13:15:00 5.1 C 6.16 g/m*3 5.1 C 1.6 km/h
161 03-12-2020 13:20:00 5.2 C 6.13 g/m*3 3.82 C 6.4 km/h
162 03-12-2020 13:25:00 5.2 C 6.13 g/m*3 5.2 C 4.8 km/h
163 03-12-2020 13:30:00 5.3 C 6.17 g/m*3 3.94 C 6.4 km/h
164 03-12-2020 13:35:00 5.3 C 6.1 g/m*3 3.94 C 6.4 km/h
165 03-12-2020 13:40:00 5.2 C 6.06 g/m*3 3.34 C 8.1 km/h
166 03-12-2020 13:45:00 5.2 C 5.99 g/m*3 2.63 C 11.3 km/h
167 03-12-2020 13:50:00 5.2 C 6.06 g/m*3 5.2 C 4.8 km/h
168 03-12-2020 13:55:00 5.2 C 6.06 g/m*3 3.82 C 6.4 km/h
169 03-12-2020 14:00:00 5.2 C 6.06 g/m*3 3.82 C 6.4 km/h
170 03-12-2020 14:05:00 5.2 C 6.06 g/m*3 3.34 C 8.1 km/h
171 03-12-2020 14:10:00 5.2 C 6.06 g/m*3 3.34 C 8.1 km/h
172 03-12-2020 14:15:00 5.2 C 6.06 g/m*3 2.96 C 9.7 km/h
173 03-12-2020 14:20:00 5.2 C 6.06 g/m*3 3.82 C 6.4 km/h
174 03-12-2020 14:25:00 5.1 C 6.02 g/m*3 3.71 C 6.4 km/h
175 03-12-2020 14:30:00 5.1 C 5.95 g/m*3 5.1 C 4.8 km/h
Sensor: Nr:Datum:Temp:Abs-Feuchte:Windchill:Wind:
Aussen-T/F 176 03-12-2020 14:35:00 5 C 5.98 g/m*3 5 C 3.2 km/h
177 03-12-2020 14:40:00 4.9 C 5.87 g/m*3 3.48 C 6.4 km/h
178 03-12-2020 14:45:00 4.9 C 5.94 g/m*3 4.9 C 1.6 km/h
179 03-12-2020 14:50:00 4.9 C 5.94 g/m*3 4.9 C 4.8 km/h
180 03-12-2020 14:55:00 4.8 C 5.9 g/m*3 4.8 C 4.8 km/h
181 03-12-2020 15:00:00 4.8 C 5.9 g/m*3 3.36 C 6.4 km/h
182 03-12-2020 15:05:00 4.8 C 5.9 g/m*3 4.8 C 4.8 km/h
183 03-12-2020 15:10:00 4.8 C 5.97 g/m*3 4.8 C 0 km/h
184 03-12-2020 15:15:00 4.8 C 5.9 g/m*3 4.8 C 0 km/h
185 03-12-2020 15:20:00 4.7 C 5.86 g/m*3 4.7 C 4.8 km/h
186 03-12-2020 15:25:00 4.7 C 5.93 g/m*3 4.7 C 0 km/h
187 03-12-2020 15:30:00 4.7 C 5.93 g/m*3 4.7 C 0 km/h
188 03-12-2020 15:35:00 4.7 C 5.93 g/m*3 4.7 C 0 km/h
189 03-12-2020 15:40:00 4.6 C 5.89 g/m*3 4.6 C 3.2 km/h
190 03-12-2020 15:45:00 4.6 C 5.89 g/m*3 4.6 C 1.6 km/h
191 03-12-2020 15:50:00 4.6 C 5.89 g/m*3 4.6 C 1.6 km/h
192 03-12-2020 15:55:00 4.6 C 5.89 g/m*3 4.6 C 0 km/h
193 03-12-2020 16:00:00 4.6 C 5.89 g/m*3 4.6 C 1.6 km/h
194 03-12-2020 16:05:00 4.6 C 5.89 g/m*3 4.6 C 0 km/h
195 03-12-2020 16:10:00 4.6 C 5.96 g/m*3 4.6 C 1.6 km/h
196 03-12-2020 16:15:00 4.5 C 5.85 g/m*3 4.5 C 4.8 km/h
197 03-12-2020 16:20:00 4.4 C 5.81 g/m*3 4.4 C 4.8 km/h
198 03-12-2020 16:25:00 4.4 C 5.81 g/m*3 4.4 C 0 km/h
199 03-12-2020 16:30:00 4.5 C 5.85 g/m*3 4.5 C 0 km/h
200 03-12-2020 16:35:00 4.4 C 5.88 g/m*3 4.4 C 0 km/h
Sensor: Nr:Datum:Temp:Abs-Feuchte:Windchill:Wind:
Aussen-T/F 201 03-12-2020 16:40:00 4.4 C 5.88 g/m*3 4.4 C 1.6 km/h
202 03-12-2020 16:45:00 4.4 C 5.88 g/m*3 4.4 C 0 km/h
203 03-12-2020 16:50:00 4.4 C 5.88 g/m*3 4.4 C 0 km/h
204 03-12-2020 16:55:00 4.4 C 5.88 g/m*3 4.4 C 0 km/h
205 03-12-2020 17:00:00 4.3 C 5.84 g/m*3 4.3 C 4.8 km/h
206 03-12-2020 17:05:00 4.3 C 5.84 g/m*3 2.29 C 8.1 km/h
207 03-12-2020 17:10:00 4.3 C 5.84 g/m*3 4.3 C 0 km/h
208 03-12-2020 17:15:00 4.3 C 5.9 g/m*3 1.55 C 11.3 km/h
209 03-12-2020 17:20:00 4.3 C 5.9 g/m*3 4.3 C 4.8 km/h
210 03-12-2020 17:25:00 4.3 C 5.9 g/m*3 4.3 C 3.2 km/h
211 03-12-2020 17:30:00 4.3 C 5.9 g/m*3 4.3 C 0 km/h
212 03-12-2020 17:35:00 4.2 C 5.8 g/m*3 4.2 C 1.6 km/h
213 03-12-2020 17:40:00 4.2 C 5.8 g/m*3 2.67 C 6.4 km/h
214 03-12-2020 17:45:00 4.3 C 5.84 g/m*3 1.89 C 9.7 km/h
215 03-12-2020 17:50:00 4.3 C 5.84 g/m*3 4.3 C 1.6 km/h
216 03-12-2020 17:55:00 4.3 C 5.84 g/m*3 4.3 C 4.8 km/h
217 03-12-2020 18:00:00 4.3 C 5.84 g/m*3 4.3 C 3.2 km/h
218 03-12-2020 18:05:00 4.3 C 5.84 g/m*3 1.89 C 9.7 km/h
219 03-12-2020 18:10:00 4.3 C 5.84 g/m*3 2.78 C 6.4 km/h
220 03-12-2020 18:15:00 4.3 C 5.84 g/m*3 4.3 C 3.2 km/h
221 03-12-2020 18:20:00 4.3 C 5.84 g/m*3 1.55 C 11.3 km/h
222 03-12-2020 18:25:00 4.3 C 5.84 g/m*3 4.3 C 4.8 km/h
223 03-12-2020 18:30:00 4.3 C 5.77 g/m*3 2.78 C 6.4 km/h
224 03-12-2020 18:35:00 4.3 C 5.77 g/m*3 4.3 C 4.8 km/h
225 03-12-2020 18:40:00 4.3 C 5.77 g/m*3 4.3 C 4.8 km/h
Sensor: Nr:Datum:Temp:Abs-Feuchte:Windchill:Wind:
Aussen-T/F 226 03-12-2020 18:45:00 4.3 C 5.77 g/m*3 1.89 C 9.7 km/h
227 03-12-2020 18:50:00 4.3 C 5.77 g/m*3 4.3 C 4.8 km/h
228 03-12-2020 18:55:00 4.3 C 5.77 g/m*3 4.3 C 3.2 km/h
229 03-12-2020 19:00:00 4.3 C 5.77 g/m*3 2.78 C 6.4 km/h
230 03-12-2020 19:05:00 4.3 C 5.77 g/m*3 4.3 C 0 km/h
231 03-12-2020 19:10:00 4.3 C 5.77 g/m*3 2.78 C 6.4 km/h
232 03-12-2020 19:15:00 4.3 C 5.77 g/m*3 2.78 C 6.4 km/h
233 03-12-2020 19:20:00 4.3 C 5.77 g/m*3 2.78 C 6.4 km/h
234 03-12-2020 19:25:00 4.3 C 5.77 g/m*3 1.55 C 11.3 km/h
235 03-12-2020 19:30:00 4.3 C 5.77 g/m*3 4.3 C 3.2 km/h
236 03-12-2020 19:35:00 4.3 C 5.77 g/m*3 1.89 C 9.7 km/h
237 03-12-2020 19:40:00 4.2 C 5.73 g/m*3 2.67 C 6.4 km/h
238 03-12-2020 19:45:00 4.2 C 5.67 g/m*3 4.2 C 4.8 km/h
239 03-12-2020 19:50:00 4.1 C 5.63 g/m*3 4.1 C 3.2 km/h
240 03-12-2020 19:55:00 4.1 C 5.63 g/m*3 4.1 C 4.8 km/h
241 03-12-2020 20:00:00 4.1 C 5.63 g/m*3 2.05 C 8.1 km/h
242 03-12-2020 20:05:00 4.1 C 5.63 g/m*3 2.05 C 8.1 km/h
243 03-12-2020 20:10:00 4.1 C 5.63 g/m*3 1.65 C 9.7 km/h
244 03-12-2020 20:15:00 4.1 C 5.63 g/m*3 2.05 C 8.1 km/h
245 03-12-2020 20:20:00 4 C 5.59 g/m*3 2.44 C 6.4 km/h
246 03-12-2020 20:25:00 4 C 5.59 g/m*3 2.44 C 6.4 km/h
247 03-12-2020 20:30:00 4 C 5.59 g/m*3 2.44 C 6.4 km/h
248 03-12-2020 20:35:00 4 C 5.59 g/m*3 4 C 1.6 km/h
249 03-12-2020 20:40:00 4 C 5.59 g/m*3 2.44 C 6.4 km/h
250 03-12-2020 20:45:00 3.9 C 5.56 g/m*3 3.9 C 4.8 km/h
Sensor: Nr:Datum:Temp:Abs-Feuchte:Windchill:Wind:
Aussen-T/F 251 03-12-2020 20:50:00 3.9 C 5.56 g/m*3 3.9 C 1.6 km/h
252 03-12-2020 20:55:00 3.9 C 5.56 g/m*3 3.9 C 4.8 km/h
253 03-12-2020 21:00:00 3.9 C 5.56 g/m*3 1.82 C 8.1 km/h
254 03-12-2020 21:05:00 3.9 C 5.56 g/m*3 3.9 C 3.2 km/h
255 03-12-2020 21:10:00 3.9 C 5.56 g/m*3 2.32 C 6.4 km/h
256 03-12-2020 21:15:00 3.9 C 5.56 g/m*3 1.41 C 9.7 km/h
257 03-12-2020 21:20:00 3.9 C 5.56 g/m*3 3.9 C 4.8 km/h
258 03-12-2020 21:25:00 3.9 C 5.56 g/m*3 2.32 C 6.4 km/h
259 03-12-2020 21:30:00 3.9 C 5.56 g/m*3 1.06 C 11.3 km/h
260 03-12-2020 21:35:00 3.8 C 5.52 g/m*3 0.94 C 11.3 km/h
261 03-12-2020 21:40:00 3.8 C 5.52 g/m*3 0.35 C 14.5 km/h
262 03-12-2020 21:45:00 3.7 C 5.48 g/m*3 2.09 C 6.4 km/h
263 03-12-2020 21:50:00 3.7 C 5.48 g/m*3 3.7 C 0 km/h
264 03-12-2020 21:55:00 3.6 C 5.45 g/m*3 1.98 C 6.4 km/h
265 03-12-2020 22:00:00 3.6 C 5.45 g/m*3 1.06 C 9.7 km/h
266 03-12-2020 22:05:00 3.6 C 5.45 g/m*3 0.7 C 11.3 km/h
267 03-12-2020 22:10:00 3.6 C 5.45 g/m*3 3.6 C 4.8 km/h
268 03-12-2020 22:15:00 3.6 C 5.45 g/m*3 1.06 C 9.7 km/h
269 03-12-2020 22:20:00 3.5 C 5.41 g/m*3 1.34 C 8.1 km/h
270 03-12-2020 22:25:00 3.5 C 5.41 g/m*3 3.5 C 3.2 km/h
271 03-12-2020 22:30:00 3.5 C 5.41 g/m*3 0.94 C 9.7 km/h
272 03-12-2020 22:35:00 3.5 C 5.41 g/m*3 3.5 C 3.2 km/h
273 03-12-2020 22:40:00 3.5 C 5.41 g/m*3 1.86 C 6.4 km/h
274 03-12-2020 22:45:00 3.6 C 5.51 g/m*3 1.06 C 9.7 km/h
275 03-12-2020 22:50:00 3.6 C 5.51 g/m*3 1.06 C 9.7 km/h
Sensor: Nr:Datum:Temp:Abs-Feuchte:Windchill:Wind:
Aussen-T/F 276 03-12-2020 22:55:00 3.6 C 5.51 g/m*3 3.6 C 4.8 km/h
277 03-12-2020 23:00:00 3.6 C 5.51 g/m*3 3.6 C 3.2 km/h
278 03-12-2020 23:05:00 3.5 C 5.53 g/m*3 1.34 C 8.1 km/h
279 03-12-2020 23:10:00 3.4 C 5.5 g/m*3 1.23 C 8.1 km/h
280 03-12-2020 23:15:00 3.4 C 5.5 g/m*3 1.75 C 6.4 km/h
281 03-12-2020 23:20:00 3.4 C 5.5 g/m*3 3.4 C 4.8 km/h
282 03-12-2020 23:25:00 3.4 C 5.5 g/m*3 3.4 C 4.8 km/h
283 03-12-2020 23:30:00 3.3 C 5.46 g/m*3 1.63 C 6.4 km/h
284 03-12-2020 23:35:00 3.3 C 5.52 g/m*3 1.11 C 8.1 km/h
285 03-12-2020 23:40:00 3.3 C 5.52 g/m*3 3.3 C 1.6 km/h
286 03-12-2020 23:45:00 3.3 C 5.52 g/m*3 1.63 C 6.4 km/h
287 03-12-2020 23:50:00 3.3 C 5.46 g/m*3 0.7 C 9.7 km/h
288 03-12-2020 23:55:00 3.3 C 5.46 g/m*3 1.63 C 6.4 km/h
289 04-12-2020 00:00:00 3.3 C 5.46 g/m*3 1.63 C 6.4 km/h
290 04-12-2020 00:05:00 3.3 C 5.52 g/m*3 0.7 C 9.7 km/h
291 04-12-2020 00:10:00 3.3 C 5.52 g/m*3 3.3 C 4.8 km/h
292 04-12-2020 00:15:00 3.3 C 5.46 g/m*3 1.63 C 6.4 km/h
293 04-12-2020 00:20:00 3.2 C 5.48 g/m*3 1.51 C 6.4 km/h
294 04-12-2020 00:25:00 3.2 C 5.48 g/m*3 0.99 C 8.1 km/h
295 04-12-2020 00:30:00 3.2 C 5.48 g/m*3 3.2 C 4.8 km/h
296 04-12-2020 00:35:00 3.2 C 5.48 g/m*3 1.51 C 6.4 km/h
297 04-12-2020 00:40:00 3.1 C 5.51 g/m*3 0.87 C 8.1 km/h
298 04-12-2020 00:45:00 3.1 C 5.51 g/m*3 1.4 C 6.4 km/h
299 04-12-2020 00:50:00 3.1 C 5.45 g/m*3 -0.22 C 12.9 km/h
300 04-12-2020 00:55:00 3.1 C 5.45 g/m*3 -0.22 C 12.9 km/h
Sensor: Nr:Datum:Temp:Abs-Feuchte:Windchill:Wind:
Aussen-T/F 301 04-12-2020 01:00:00 3.1 C 5.45 g/m*3 -1.45 C 20.9 km/h
302 04-12-2020 01:05:00 3.1 C 5.45 g/m*3 -0.51 C 14.5 km/h
303 04-12-2020 01:10:00 3.1 C 5.45 g/m*3 0.46 C 9.7 km/h
304 04-12-2020 01:15:00 3.1 C 5.45 g/m*3 1.4 C 6.4 km/h
305 04-12-2020 01:20:00 3 C 5.41 g/m*3 0.34 C 9.7 km/h
306 04-12-2020 01:25:00 3 C 5.41 g/m*3 0.34 C 9.7 km/h
307 04-12-2020 01:30:00 3 C 5.41 g/m*3 -0.34 C 12.9 km/h
308 04-12-2020 01:35:00 3 C 5.41 g/m*3 -0.34 C 12.9 km/h
309 04-12-2020 01:40:00 3 C 5.41 g/m*3 0.76 C 8.1 km/h
310 04-12-2020 01:45:00 2.9 C 5.37 g/m*3 -0.46 C 12.9 km/h
311 04-12-2020 01:50:00 2.9 C 5.37 g/m*3 -0.76 C 14.5 km/h
312 04-12-2020 01:55:00 2.9 C 5.37 g/m*3 0.64 C 8.1 km/h
313 04-12-2020 02:00:00 2.9 C 5.37 g/m*3 0.64 C 8.1 km/h
314 04-12-2020 02:05:00 2.9 C 5.37 g/m*3 -0.14 C 11.3 km/h
315 04-12-2020 02:10:00 2.8 C 5.34 g/m*3 0.1 C 9.7 km/h
316 04-12-2020 02:15:00 2.8 C 5.34 g/m*3 -0.26 C 11.3 km/h
317 04-12-2020 02:20:00 2.8 C 5.34 g/m*3 1.05 C 6.4 km/h
318 04-12-2020 02:25:00 2.9 C 5.37 g/m*3 -1.02 C 16.1 km/h
319 04-12-2020 02:30:00 2.9 C 5.43 g/m*3 -0.46 C 12.9 km/h
320 04-12-2020 02:35:00 2.9 C 5.37 g/m*3 0.22 C 9.7 km/h
321 04-12-2020 02:40:00 2.9 C 5.43 g/m*3 -0.76 C 14.5 km/h
322 04-12-2020 02:45:00 2.9 C 5.43 g/m*3 -0.46 C 12.9 km/h
323 04-12-2020 02:50:00 2.9 C 5.43 g/m*3 -0.46 C 12.9 km/h
324 04-12-2020 02:55:00 2.9 C 5.43 g/m*3 0.22 C 9.7 km/h
325 04-12-2020 03:00:00 2.9 C 5.43 g/m*3 -0.14 C 11.3 km/h
Sensor: Nr:Datum:Temp:Abs-Feuchte:Windchill:Wind:
Aussen-T/F 326 04-12-2020 03:05:00 3 C 5.47 g/m*3 0.76 C 8.1 km/h
327 04-12-2020 03:10:00 3 C 5.47 g/m*3 0.76 C 8.1 km/h
328 04-12-2020 03:15:00 3 C 5.53 g/m*3 -0.02 C 11.3 km/h
329 04-12-2020 03:20:00 3.1 C 5.57 g/m*3 1.4 C 6.4 km/h
330 04-12-2020 03:25:00 3.1 C 5.57 g/m*3 0.87 C 8.1 km/h
331 04-12-2020 03:30:00 3.1 C 5.57 g/m*3 0.87 C 8.1 km/h
332 04-12-2020 03:35:00 3.1 C 5.57 g/m*3 1.4 C 6.4 km/h
333 04-12-2020 03:40:00 3.1 C 5.57 g/m*3 0.46 C 9.7 km/h
334 04-12-2020 03:45:00 3.1 C 5.57 g/m*3 0.1 C 11.3 km/h
335 04-12-2020 03:50:00 3.1 C 5.57 g/m*3 0.46 C 9.7 km/h
336 04-12-2020 03:55:00 3.1 C 5.57 g/m*3 0.87 C 8.1 km/h
337 04-12-2020 04:00:00 3.2 C 5.6 g/m*3 -0.1 C 12.9 km/h
338 04-12-2020 04:05:00 3.2 C 5.6 g/m*3 -0.89 C 17.7 km/h
339 04-12-2020 04:10:00 3.2 C 5.6 g/m*3 0.22 C 11.3 km/h
340 04-12-2020 04:15:00 3.3 C 5.64 g/m*3 0.02 C 12.9 km/h
341 04-12-2020 04:20:00 3.3 C 5.64 g/m*3 -0.26 C 14.5 km/h
342 04-12-2020 04:25:00 3.3 C 5.64 g/m*3 0.7 C 9.7 km/h
343 04-12-2020 04:30:00 3.2 C 5.6 g/m*3 0.22 C 11.3 km/h
344 04-12-2020 04:35:00 3.2 C 5.6 g/m*3 0.58 C 9.7 km/h
345 04-12-2020 04:40:00 3.2 C 5.6 g/m*3 -0.65 C 16.1 km/h
346 04-12-2020 04:45:00 3.2 C 5.6 g/m*3 0.99 C 8.1 km/h
347 04-12-2020 04:50:00 3.2 C 5.6 g/m*3 0.22 C 11.3 km/h
348 04-12-2020 04:55:00 3.3 C 5.64 g/m*3 0.02 C 12.9 km/h
349 04-12-2020 05:00:00 3.3 C 5.64 g/m*3 1.11 C 8.1 km/h
350 04-12-2020 05:05:00 3.3 C 5.64 g/m*3 1.63 C 6.4 km/h
Sensor: Nr:Datum:Temp:Abs-Feuchte:Windchill:Wind:
Aussen-T/F 351 04-12-2020 05:10:00 3.3 C 5.64 g/m*3 1.11 C 8.1 km/h
352 04-12-2020 05:15:00 3.4 C 5.68 g/m*3 1.75 C 6.4 km/h
353 04-12-2020 05:20:00 3.4 C 5.68 g/m*3 1.23 C 8.1 km/h
354 04-12-2020 05:25:00 3.4 C 5.68 g/m*3 1.23 C 8.1 km/h
355 04-12-2020 05:30:00 3.4 C 5.68 g/m*3 3.4 C 4.8 km/h
356 04-12-2020 05:35:00 3.4 C 5.68 g/m*3 1.23 C 8.1 km/h
357 04-12-2020 05:40:00 3.5 C 5.72 g/m*3 3.5 C 4.8 km/h
358 04-12-2020 05:45:00 3.5 C 5.78 g/m*3 3.5 C 3.2 km/h
359 04-12-2020 05:50:00 3.5 C 5.78 g/m*3 3.5 C 0 km/h
360 04-12-2020 05:55:00 3.5 C 5.78 g/m*3 3.5 C 1.6 km/h
361 04-12-2020 06:00:00 3.5 C 5.78 g/m*3 3.5 C 4.8 km/h
362 04-12-2020 06:05:00 3.6 C 5.82 g/m*3 3.6 C 3.2 km/h
363 04-12-2020 06:10:00 3.6 C 5.82 g/m*3 3.6 C 0 km/h
364 04-12-2020 06:15:00 3.6 C 5.82 g/m*3 1.06 C 9.7 km/h
365 04-12-2020 06:20:00 3.6 C 5.88 g/m*3 3.6 C 4.8 km/h
366 04-12-2020 06:25:00 3.7 C 5.92 g/m*3 3.7 C 0 km/h
367 04-12-2020 06:30:00 3.7 C 5.92 g/m*3 3.7 C 3.2 km/h
368 04-12-2020 06:35:00 3.7 C 5.92 g/m*3 3.7 C 1.6 km/h
369 04-12-2020 06:40:00 3.7 C 5.92 g/m*3 2.09 C 6.4 km/h
370 04-12-2020 06:45:00 3.8 C 5.96 g/m*3 3.8 C 4.8 km/h
371 04-12-2020 06:50:00 3.8 C 5.96 g/m*3 3.8 C 4.8 km/h
372 04-12-2020 06:55:00 3.8 C 5.96 g/m*3 3.8 C 4.8 km/h
373 04-12-2020 07:00:00 3.8 C 5.96 g/m*3 3.8 C 1.6 km/h
374 04-12-2020 07:05:00 3.8 C 5.96 g/m*3 3.8 C 1.6 km/h
375 04-12-2020 07:10:00 3.7 C 5.92 g/m*3 3.7 C 4.8 km/h
Sensor: Nr:Datum:Temp:Abs-Feuchte:Windchill:Wind:
Aussen-T/F 376 04-12-2020 07:15:00 3.8 C 5.96 g/m*3 3.8 C 3.2 km/h
377 04-12-2020 07:20:00 3.7 C 5.92 g/m*3 3.7 C 4.8 km/h
378 04-12-2020 07:25:00 3.7 C 5.92 g/m*3 1.58 C 8.1 km/h
379 04-12-2020 07:30:00 3.8 C 5.96 g/m*3 3.8 C 3.2 km/h
380 04-12-2020 07:35:00 3.8 C 5.96 g/m*3 3.8 C 0 km/h
381 04-12-2020 07:40:00 3.8 C 5.96 g/m*3 3.8 C 4.8 km/h
382 04-12-2020 07:45:00 3.8 C 5.96 g/m*3 3.8 C 0 km/h
383 04-12-2020 07:50:00 3.8 C 5.96 g/m*3 3.8 C 0 km/h
384 04-12-2020 07:55:00 3.8 C 5.96 g/m*3 3.8 C 0 km/h
385 04-12-2020 08:00:00 3.8 C 5.96 g/m*3 3.8 C 1.6 km/h
386 04-12-2020 08:05:00 3.9 C 6.06 g/m*3 3.9 C 4.8 km/h
387 04-12-2020 08:10:00 4 C 6.1 g/m*3 4 C 1.6 km/h
388 04-12-2020 08:15:00 4 C 6.1 g/m*3 4 C 3.2 km/h
389 04-12-2020 08:20:00 4 C 6.1 g/m*3 4 C 0 km/h
390 04-12-2020 08:25:00 4 C 6.1 g/m*3 4 C 1.6 km/h
391 04-12-2020 08:30:00 4.1 C 6.14 g/m*3 4.1 C 1.6 km/h
392 04-12-2020 08:35:00 4.2 C 6.19 g/m*3 1.77 C 9.7 km/h
393 04-12-2020 08:40:00 4.3 C 6.23 g/m*3 4.3 C 1.6 km/h
394 04-12-2020 08:45:00 4.3 C 6.23 g/m*3 4.3 C 1.6 km/h
395 04-12-2020 08:50:00 4.3 C 6.23 g/m*3 1.55 C 11.3 km/h
396 04-12-2020 08:55:00 4.4 C 6.27 g/m*3 4.4 C 1.6 km/h
397 04-12-2020 09:00:00 4.4 C 6.27 g/m*3 4.4 C 3.2 km/h
398 04-12-2020 09:05:00 4.4 C 6.27 g/m*3 4.4 C 1.6 km/h
399 04-12-2020 09:10:00 4.4 C 6.27 g/m*3 4.4 C 0 km/h
400 04-12-2020 09:15:00 4.4 C 6.27 g/m*3 4.4 C 4.8 km/h
Sensor: Nr:Datum:Temp:Abs-Feuchte:Windchill:Wind:
Aussen-T/F 401 04-12-2020 09:20:00 4.4 C 6.27 g/m*3 2.9 C 6.4 km/h
402 04-12-2020 09:25:00 4.5 C 6.31 g/m*3 4.5 C 3.2 km/h
403 04-12-2020 09:30:00 4.6 C 6.35 g/m*3 3.13 C 6.4 km/h
404 04-12-2020 09:35:00 4.7 C 6.39 g/m*3 3.25 C 6.4 km/h
405 04-12-2020 09:40:00 4.8 C 6.44 g/m*3 4.8 C 4.8 km/h
406 04-12-2020 09:45:00 4.9 C 6.48 g/m*3 4.9 C 4.8 km/h
407 04-12-2020 09:50:00 5 C 6.52 g/m*3 5 C 0 km/h
408 04-12-2020 09:55:00 5.1 C 6.57 g/m*3 5.1 C 1.6 km/h
409 04-12-2020 10:00:00 5.2 C 6.61 g/m*3 3.82 C 6.4 km/h
410 04-12-2020 10:05:00 5.3 C 6.65 g/m*3 5.3 C 1.6 km/h
411 04-12-2020 10:10:00 5.3 C 6.65 g/m*3 5.3 C 3.2 km/h
412 04-12-2020 10:15:00 5.3 C 6.65 g/m*3 5.3 C 1.6 km/h
413 04-12-2020 10:20:00 5.3 C 6.65 g/m*3 3.94 C 6.4 km/h
414 04-12-2020 10:25:00 5.3 C 6.65 g/m*3 5.3 C 1.6 km/h
415 04-12-2020 10:30:00 5.4 C 6.7 g/m*3 5.4 C 0 km/h
416 04-12-2020 10:35:00 5.4 C 6.7 g/m*3 3.58 C 8.1 km/h
417 04-12-2020 10:40:00 5.4 C 6.7 g/m*3 5.4 C 1.6 km/h
418 04-12-2020 10:45:00 5.5 C 6.74 g/m*3 5.5 C 3.2 km/h
419 04-12-2020 10:50:00 5.5 C 6.74 g/m*3 5.5 C 3.2 km/h
420 04-12-2020 10:55:00 5.5 C 6.74 g/m*3 5.5 C 4.8 km/h
421 04-12-2020 11:00:00 5.5 C 6.74 g/m*3 5.5 C 1.6 km/h
422 04-12-2020 11:05:00 5.6 C 6.79 g/m*3 5.6 C 4.8 km/h
423 04-12-2020 11:10:00 5.6 C 6.79 g/m*3 5.6 C 3.2 km/h
424 04-12-2020 11:15:00 5.7 C 6.83 g/m*3 3.93 C 8.1 km/h
425 04-12-2020 11:20:00 5.8 C 6.88 g/m*3 5.8 C 3.2 km/h
Sensor: Nr:Datum:Temp:Abs-Feuchte:Windchill:Wind:
Aussen-T/F 426 04-12-2020 11:25:00 5.9 C 6.92 g/m*3 5.9 C 3.2 km/h
427 04-12-2020 11:30:00 6.1 C 7.01 g/m*3 6.1 C 0 km/h
428 04-12-2020 11:35:00 6.2 C 7.06 g/m*3 6.2 C 4.8 km/h
429 04-12-2020 11:40:00 6.3 C 7.11 g/m*3 6.3 C 0 km/h
430 04-12-2020 11:45:00 6.5 C 7.2 g/m*3 6.5 C 0 km/h
431 04-12-2020 11:50:00 6.7 C 7.29 g/m*3 6.7 C 1.6 km/h
432 04-12-2020 11:55:00 6.7 C 7.22 g/m*3 6.7 C 1.6 km/h
433 04-12-2020 12:00:00 6.7 C 7.22 g/m*3 6.7 C 3.2 km/h
434 04-12-2020 12:05:00 6.7 C 7.14 g/m*3 6.7 C 4.8 km/h
435 04-12-2020 12:10:00 6.7 C 7.14 g/m*3 6.7 C 0 km/h
436 04-12-2020 12:15:00 6.8 C 7.19 g/m*3 6.8 C 0 km/h
437 04-12-2020 12:20:00 6.9 C 7.31 g/m*3 6.9 C 0 km/h
438 04-12-2020 12:25:00 7.1 C 7.33 g/m*3 7.1 C 4.8 km/h
439 04-12-2020 12:30:00 7.1 C 7.33 g/m*3 7.1 C 0 km/h
440 04-12-2020 12:35:00 7.1 C 7.25 g/m*3 7.1 C 3.2 km/h
441 04-12-2020 12:40:00 7.1 C 7.25 g/m*3 7.1 C 0 km/h
442 04-12-2020 12:45:00 7.1 C 7.25 g/m*3 7.1 C 1.6 km/h
443 04-12-2020 12:50:00 7.2 C 7.3 g/m*3 7.2 C 1.6 km/h
444 04-12-2020 12:55:00 7.2 C 7.3 g/m*3 7.2 C 0 km/h
445 04-12-2020 13:00:00 7.2 C 7.3 g/m*3 7.2 C 0 km/h
446 04-12-2020 13:05:00 7.2 C 7.3 g/m*3 7.2 C 0 km/h
447 04-12-2020 13:10:00 7.2 C 7.3 g/m*3 7.2 C 3.2 km/h
448 04-12-2020 13:15:00 7.2 C 7.22 g/m*3 7.2 C 4.8 km/h
449 04-12-2020 13:20:00 7.2 C 7.22 g/m*3 7.2 C 0 km/h
450 04-12-2020 13:25:00 7.3 C 7.27 g/m*3 7.3 C 1.6 km/h
Sensor: Nr:Datum:Temp:Abs-Feuchte:Windchill:Wind:
Aussen-T/F 451 04-12-2020 13:30:00 7.3 C 7.27 g/m*3 7.3 C 4.8 km/h
452 04-12-2020 13:35:00 7.4 C 7.32 g/m*3 7.4 C 3.2 km/h
453 04-12-2020 13:40:00 7.4 C 7.32 g/m*3 7.4 C 3.2 km/h
454 04-12-2020 13:45:00 7.4 C 7.24 g/m*3 6.37 C 6.4 km/h
455 04-12-2020 13:50:00 7.5 C 7.28 g/m*3 7.5 C 0 km/h
456 04-12-2020 13:55:00 7.6 C 7.41 g/m*3 7.6 C 0 km/h
457 04-12-2020 14:00:00 7.6 C 7.41 g/m*3 7.6 C 0 km/h
458 04-12-2020 14:05:00 7.6 C 7.33 g/m*3 7.6 C 0 km/h
459 04-12-2020 14:10:00 7.6 C 7.33 g/m*3 7.6 C 0 km/h
460 04-12-2020 14:15:00 7.6 C 7.33 g/m*3 7.6 C 0 km/h
461 04-12-2020 14:20:00 7.7 C 7.38 g/m*3 7.7 C 0 km/h
462 04-12-2020 14:25:00 7.7 C 7.46 g/m*3 7.7 C 0 km/h
463 04-12-2020 14:30:00 7.7 C 7.38 g/m*3 7.7 C 0 km/h
464 04-12-2020 14:35:00 7.7 C 7.38 g/m*3 7.7 C 0 km/h
465 04-12-2020 14:40:00 7.7 C 7.46 g/m*3 7.7 C 0 km/h
466 04-12-2020 14:45:00 7.6 C 7.41 g/m*3 7.6 C 0 km/h
467 04-12-2020 14:50:00 7.6 C 7.41 g/m*3 7.6 C 1.6 km/h
468 04-12-2020 14:55:00 7.6 C 7.41 g/m*3 7.6 C 0 km/h
469 04-12-2020 15:00:00 7.4 C 7.32 g/m*3 7.4 C 3.2 km/h
470 04-12-2020 15:05:00 7.4 C 7.32 g/m*3 7.4 C 0 km/h
471 04-12-2020 15:10:00 7.3 C 7.27 g/m*3 7.3 C 0 km/h
472 04-12-2020 15:15:00 7.3 C 7.27 g/m*3 7.3 C 0 km/h
473 04-12-2020 15:20:00 7.2 C 7.22 g/m*3 7.2 C 0 km/h
474 04-12-2020 15:25:00 7.1 C 7.18 g/m*3 7.1 C 0 km/h
475 04-12-2020 15:30:00 7 C 7.13 g/m*3 7 C 3.2 km/h
Sensor: Nr:Datum:Temp:Abs-Feuchte:Windchill:Wind:
Aussen-T/F 476 04-12-2020 15:35:00 6.9 C 7.08 g/m*3 6.9 C 0 km/h
477 04-12-2020 15:40:00 6.8 C 7.04 g/m*3 6.8 C 1.6 km/h
478 04-12-2020 15:45:00 6.8 C 7.04 g/m*3 6.8 C 0 km/h
479 04-12-2020 15:50:00 6.7 C 7.07 g/m*3 6.7 C 3.2 km/h
480 04-12-2020 15:55:00 6.7 C 6.99 g/m*3 6.7 C 0 km/h
481 04-12-2020 16:00:00 6.6 C 7.02 g/m*3 6.6 C 0 km/h
482 04-12-2020 16:05:00 6.5 C 6.97 g/m*3 6.5 C 3.2 km/h
483 04-12-2020 16:10:00 6.4 C 6.93 g/m*3 6.4 C 1.6 km/h
484 04-12-2020 16:15:00 6.3 C 6.88 g/m*3 6.3 C 0 km/h
485 04-12-2020 16:20:00 6.2 C 6.84 g/m*3 6.2 C 0 km/h
486 04-12-2020 16:25:00 6.2 C 6.84 g/m*3 6.2 C 3.2 km/h
487 04-12-2020 16:30:00 6.1 C 6.79 g/m*3 6.1 C 4.8 km/h
488 04-12-2020 16:35:00 6 C 6.75 g/m*3 6 C 0 km/h
489 04-12-2020 16:40:00 5.9 C 6.71 g/m*3 5.9 C 0 km/h
490 04-12-2020 16:45:00 5.8 C 6.66 g/m*3 5.8 C 3.2 km/h
491 04-12-2020 16:50:00 5.7 C 6.62 g/m*3 5.7 C 4.8 km/h
492 04-12-2020 16:55:00 5.7 C 6.62 g/m*3 5.7 C 3.2 km/h
493 04-12-2020 17:00:00 5.6 C 6.57 g/m*3 5.6 C 3.2 km/h
494 04-12-2020 17:05:00 5.5 C 6.53 g/m*3 5.5 C 3.2 km/h
495 04-12-2020 17:10:00 5.4 C 6.56 g/m*3 5.4 C 4.8 km/h
496 04-12-2020 17:15:00 5.3 C 6.52 g/m*3 5.3 C 4.8 km/h
497 04-12-2020 17:20:00 5.3 C 6.52 g/m*3 5.3 C 1.6 km/h
498 04-12-2020 17:25:00 5.2 C 6.47 g/m*3 5.2 C 1.6 km/h
499 04-12-2020 17:30:00 5.2 C 6.47 g/m*3 5.2 C 0 km/h
500 04-12-2020 17:35:00 5.1 C 6.43 g/m*3 5.1 C 4.8 km/h
Sensor: Nr:Datum:Temp:Abs-Feuchte:Windchill:Wind:
Aussen-T/F 501 04-12-2020 17:40:00 5 C 6.39 g/m*3 5 C 4.8 km/h
502 04-12-2020 17:45:00 4.9 C 6.35 g/m*3 4.9 C 3.2 km/h
503 04-12-2020 17:50:00 4.9 C 6.35 g/m*3 4.9 C 3.2 km/h
504 04-12-2020 17:55:00 4.9 C 6.35 g/m*3 4.9 C 3.2 km/h
505 04-12-2020 18:00:00 4.8 C 6.3 g/m*3 4.8 C 3.2 km/h
506 04-12-2020 18:05:00 4.8 C 6.3 g/m*3 4.8 C 4.8 km/h
507 04-12-2020 18:10:00 4.7 C 6.26 g/m*3 4.7 C 4.8 km/h
508 04-12-2020 18:15:00 4.6 C 6.22 g/m*3 4.6 C 4.8 km/h
509 04-12-2020 18:20:00 4.6 C 6.29 g/m*3 4.6 C 4.8 km/h
510 04-12-2020 18:25:00 4.5 C 6.24 g/m*3 4.5 C 4.8 km/h
511 04-12-2020 18:30:00 4.4 C 6.14 g/m*3 4.4 C 4.8 km/h
512 04-12-2020 18:35:00 4.4 C 6.2 g/m*3 4.4 C 4.8 km/h
513 04-12-2020 18:40:00 4.4 C 6.2 g/m*3 4.4 C 4.8 km/h
514 04-12-2020 18:45:00 4.3 C 6.16 g/m*3 4.3 C 4.8 km/h
515 04-12-2020 18:50:00 4.3 C 6.16 g/m*3 4.3 C 4.8 km/h
516 04-12-2020 18:55:00 4.2 C 6.12 g/m*3 4.2 C 3.2 km/h
517 04-12-2020 19:00:00 4 C 5.98 g/m*3 4 C 4.8 km/h
518 04-12-2020 19:05:00 3.8 C 5.96 g/m*3 3.8 C 4.8 km/h
519 04-12-2020 19:10:00 3.8 C 5.96 g/m*3 3.8 C 4.8 km/h
520 04-12-2020 19:15:00 3.7 C 5.92 g/m*3 3.7 C 0 km/h
521 04-12-2020 19:20:00 3.7 C 5.92 g/m*3 3.7 C 4.8 km/h
522 04-12-2020 19:25:00 3.6 C 5.88 g/m*3 3.6 C 4.8 km/h
523 04-12-2020 19:30:00 3.6 C 5.88 g/m*3 3.6 C 4.8 km/h
524 04-12-2020 19:35:00 3.5 C 5.84 g/m*3 3.5 C 4.8 km/h
525 04-12-2020 19:40:00 3.5 C 5.84 g/m*3 3.5 C 4.8 km/h
Sensor: Nr:Datum:Temp:Abs-Feuchte:Windchill:Wind:
Aussen-T/F 526 04-12-2020 19:45:00 3.6 C 5.88 g/m*3 3.6 C 1.6 km/h
527 04-12-2020 19:50:00 3.7 C 5.98 g/m*3 3.7 C 0 km/h
528 04-12-2020 19:55:00 3.7 C 5.98 g/m*3 3.7 C 0 km/h
529 04-12-2020 20:00:00 3.7 C 5.98 g/m*3 3.7 C 0 km/h
530 04-12-2020 20:05:00 3.8 C 6.02 g/m*3 3.8 C 0 km/h
531 04-12-2020 20:10:00 3.8 C 6.02 g/m*3 3.8 C 0 km/h
532 04-12-2020 20:15:00 3.9 C 6.06 g/m*3 3.9 C 0 km/h
533 04-12-2020 20:20:00 3.9 C 6.06 g/m*3 3.9 C 0 km/h
534 04-12-2020 20:25:00 4 C 6.1 g/m*3 4 C 0 km/h
535 04-12-2020 20:30:00 4 C 6.1 g/m*3 4 C 0 km/h
536 04-12-2020 20:35:00 4 C 6.1 g/m*3 4 C 0 km/h
537 04-12-2020 20:40:00 3.9 C 6.06 g/m*3 3.9 C 0 km/h
538 04-12-2020 20:45:00 3.8 C 6.02 g/m*3 3.8 C 0 km/h
539 04-12-2020 20:50:00 3.7 C 5.92 g/m*3 3.7 C 0 km/h
540 04-12-2020 20:55:00 3.6 C 5.94 g/m*3 3.6 C 0 km/h
541 04-12-2020 21:00:00 3.5 C 5.9 g/m*3 3.5 C 0 km/h
542 04-12-2020 21:05:00 3.4 C 5.8 g/m*3 3.4 C 0 km/h
543 04-12-2020 21:10:00 3.3 C 5.82 g/m*3 3.3 C 0 km/h
544 04-12-2020 21:15:00 3.3 C 5.82 g/m*3 3.3 C 0 km/h
545 04-12-2020 21:20:00 3.3 C 5.82 g/m*3 3.3 C 0 km/h
546 04-12-2020 21:25:00 3.3 C 5.82 g/m*3 3.3 C 0 km/h
547 04-12-2020 21:30:00 3.4 C 5.86 g/m*3 3.4 C 0 km/h
548 04-12-2020 21:35:00 3.4 C 5.86 g/m*3 3.4 C 0 km/h
549 04-12-2020 21:40:00 3.3 C 5.82 g/m*3 3.3 C 0 km/h
550 04-12-2020 21:45:00 3.3 C 5.82 g/m*3 3.3 C 0 km/h
Sensor: Nr:Datum:Temp:Abs-Feuchte:Windchill:Wind:
Aussen-T/F 551 04-12-2020 21:50:00 3.3 C 5.82 g/m*3 3.3 C 0 km/h
552 04-12-2020 21:55:00 3.3 C 5.82 g/m*3 3.3 C 0 km/h
553 04-12-2020 22:00:00 3.3 C 5.82 g/m*3 3.3 C 0 km/h
554 04-12-2020 22:05:00 3.3 C 5.82 g/m*3 3.3 C 0 km/h
555 04-12-2020 22:10:00 3.3 C 5.82 g/m*3 3.3 C 0 km/h
556 04-12-2020 22:15:00 3.3 C 5.82 g/m*3 3.3 C 0 km/h
557 04-12-2020 22:20:00 3.3 C 5.82 g/m*3 3.3 C 0 km/h
558 04-12-2020 22:25:00 3.3 C 5.82 g/m*3 3.3 C 0 km/h
559 04-12-2020 22:30:00 3.3 C 5.82 g/m*3 3.3 C 0 km/h
560 04-12-2020 22:35:00 3.4 C 5.86 g/m*3 3.4 C 0 km/h
561 04-12-2020 22:40:00 3.4 C 5.86 g/m*3 3.4 C 0 km/h
562 04-12-2020 22:45:00 3.4 C 5.86 g/m*3 3.4 C 0 km/h
563 04-12-2020 22:50:00 3.4 C 5.86 g/m*3 3.4 C 0 km/h
564 04-12-2020 22:55:00 3.6 C 5.94 g/m*3 3.6 C 0 km/h
565 04-12-2020 23:00:00 3.7 C 5.98 g/m*3 3.7 C 0 km/h
566 04-12-2020 23:05:00 3.8 C 6.09 g/m*3 1.7 C 8.1 km/h
567 04-12-2020 23:10:00 4.2 C 6.25 g/m*3 4.2 C 3.2 km/h
568 04-12-2020 23:15:00 4.3 C 6.29 g/m*3 4.3 C 0 km/h
569 04-12-2020 23:20:00 4.4 C 6.33 g/m*3 4.4 C 1.6 km/h
570 04-12-2020 23:25:00 4.4 C 6.33 g/m*3 4.4 C 0 km/h
571 04-12-2020 23:30:00 4.5 C 6.38 g/m*3 4.5 C 0 km/h
572 04-12-2020 23:35:00 4.5 C 6.38 g/m*3 4.5 C 3.2 km/h
573 04-12-2020 23:40:00 4.6 C 6.42 g/m*3 4.6 C 0 km/h
574 04-12-2020 23:45:00 4.6 C 6.42 g/m*3 4.6 C 3.2 km/h
575 04-12-2020 23:50:00 4.6 C 6.42 g/m*3 4.6 C 0 km/h
Sensor: Nr:Datum:Temp:Abs-Feuchte:Windchill:Wind:
Aussen-T/F 576 04-12-2020 23:55:00 4.6 C 6.42 g/m*3 4.6 C 0 km/h

Legende:
   Min
   Max


Maximal/Minimal-Werte vom 14.04.2020 - 16.05.2020

Sensor Min Max Avg
Temp
(Aussen-T/F)
-0.1 °C
15-04-2020  06:55:00
26.2 °C
17-04-2020  18:05:00
11.98 °C

Die Daten stammen von einer Davis Vantage Pro 2 Wetter-Station und werden unter Linux mit der Software wview2wettercgi und aufbereitet. Alle Angaben erfolgen ohne Gewähr für ihre Vollständigkeit oder Richtigkeit.
Kontakt: Rainer Krienke krienke@uni-koblenz.de . Meine Webseiten an der Uni Koblenz oder privat.
Version: $Revision: 0.78 $